IRIS (39197 NORAD) Tracking and Keplerian Element Data

This shows tracking and keplerian element data for the satellite.

Feedback or suggestion? Click here.




ElementValue
Catalog39197
NameIRIS
Epoch Orbit60946
Epoch Day286.48107926
Epoch Year2024
RAAN116.5646
Inclination97.9609
Eccentricity0.002608
Argument of Perigee156.9557
Mean Anonmoly203.2832
Mean Motion14.82876549
Decay Rate6.443E-05
L11 39197U 13033A 24286.48107926 .00006443 00000+0 79672-3 0 9998
L22 39197 97.9609 116.5646 0026080 156.9557 203.2832 14.82876549609463



Live tracking and technical data element details for IRIS (NORAD 39197). IRIS can be tracked NOW for your location showing map with azimuth and elevation plus other details from your city location.







IsCatalogInMostPopularTable: catalog: 39197, numindb: 601
Update: records affected: 1



GetName: 39197 IRIS

Hit Count: updated at: Tue, 03 Dec 2024 01:44:45 GMT